GFSGL_prec_cloud_024.txt.gz
Cloud_Cover
0 0 0 0 0 0 0 0 0 0 0 0 0 0 0 1 4 5 60 100 94 32 70 63 78 50 86 100 100 100 100 100 100 100 100 100 100 97 33 26 6 7 10
0 0 0 0 0 0 0 0 0 0 0 0 0 0 0 0 4 0 2 72 100 97 30 53 91 100 100 100 100 100 100 100 100 100 100 100 100 13 18 6 52 64 80
0 0 0 0 0 0 0 0 0 0 0 1 1 5 5 5 3 0 0 2 24 85 100 84 33 90 70 79 100 100 100 100 100 100 100 100 96 100 99 82 80 100 100
0 0 0 0 0 0 0 0 0 0 0 0 0 5 5 2 5 5 2 4 2 0 67 96 6 42 100 100 39 97 100 100 100 100 100 94 87 94 82 35 100 100 100
0 0 0 0 0 0 0 0 0 0 3 2 4 8 12 26 5 5 5 5 5 8 98 100 58 33 98 100 100 100 99 80 46 78 100 100 100 100 100 100 100 100 100
0 0 0 0 0 0 0 0 0 0 1 0 10 10 99 26 27 7 0 0 0 0 97 99 68 66 93 39 5 65 100 100 100 100 100 100 100 100 90 83 40 21 99
0 0 0 0 0 0 0 0 0 0 1 18 15 100 70 56 5 36 8 0 0 8 30 64 51 12 5 5 63 96 98 87 84 98 40 18 5 5 5 48 98 60 5
0 0 0 0 0 0 0 0 0 0 11 59 86 73 100 100 66 100 3 10 83 100 98 59 92 43 100 100 100 94 70 100 39 16 28 81 63 6 10 56 69 22 5
0 0 0 0 0 0 0 0 0 5 80 100 100 100 100 98 18 76 5 71 100 85 100 100 94 46 88 100 88 81 25 16 1 7 11 95 99 87 100 96 20 7 3
5 5 5 5 5 0 0 30 21 37 90 100 99 100 100 100 100 88 40 99 44 3 5 4 5 5 11 99 12 6 5 5 5 5 93 100 100 100 97 19 1 1 0
0 0 4 5 5 0 7 75 100 85 100 100 100 98 100 100 100 100 100 87 12 25 94 0 7 33 37 59 84 86 97 38 4 5 92 88 5 14 100 77 1 0 5
0 0 0 2 3 14 99 78 74 100 100 100 100 100 100 100 100 100 100 47 59 2 0 0 1 21 57 93 48 100 100 100 38 0 0 0 81 100 7 1 0 0 3
1 5 5 5 27 100 92 82 100 100 100 100 100 100 100 91 82 79 87 98 91 35 0 14 37 79 70 65 100 9 97 36 0 0 0 3 5 2 0 3 43 97 93
5 12 40 100 72 100 92 100 100 100 100 100 66 98 100 96 53 31 7 38 80 10 4 9 21 72 88 98 49 5 0 2 16 25 0 0 0 1 5 13 4 2 5
100 100 100 87 100 100 100 100 100 100 100 38 91 89 37 25 38 6 5 1 9 0 3 7 26 5 5 6 54 14 90 100 91 12 17 0 3 1 0 0 0 0 1
83 100 96 100 100 100 89 99 100 100 100 100 100 79 88 100 100 40 49 2 0 0 2 4 5 1 0 36 100 100 100 100 100 87 4 5 1 0 0 0 0 0 2
81 100 100 100 100 100 88 100 93 57 81 100 99 90 34 16 43 2 0 0 0 0 0 0 0 0 45 100 100 100 100 100 82 7 5 0 0 0 0 0 0 0 0
100 100 100 99 93 100 100 100 100 99 98 93 60 11 23 0 0 0 0 0 0 0 0 0 0 92 100 95 95 97 89 5 0 0 0 0 0 0 0 0 0 0 0
100 100 100 100 100 100 100 100 100 83 94 5 73 18 27 1 0 0 9 0 0 0 33 99 49 0 1 14 5 0 0 0 0 0 0 0 0 0 0 0 0 0 0
100 100 97 100 100 100 100 100 100 62 51 89 100 65 19 1 0 0 0 0 0 0 0 0 3 71 34 11 0 0 0 0 0 0 0 0 0 0 0 0 0 0 0
100 100 100 100 100 100 100 100 100 98 9 5 40 67 100 33 0 0 0 0 0 0 0 0 0 0 0 0 0 0 0 0 0 0 0 0 0 0 0 0 0 0 0
100 100 100 100 100 100 100 100 24 7 67 82 100 31 20 56 15 6 0 24 93 100 44 3 0 0 2 0 0 0 0 0 0 0 0 0 0 0 0 0 0 0 0
100 100 100 100 100 79 98 100 100 100 24 20 0 0 24 21 43 88 83 94 100 100 99 100 33 0 0 0 0 0 0 0 0 0 0 0 0 0 0 0 0 0 0
100 100 100 100 100 80 74 79 100 75 33 58 4 4 4 46 68 100 65 100 46 100 100 100 100 51 0 0 0 0 0 0 0 0 0 0 0 0 0 0 0 0 0
100 100 100 100 100 100 100 100 100 100 99 37 1 94 100 86 95 100 98 100 97 100 100 100 100 58 0 0 0 0 0 0 0 0 0 0 0 0 0 0 0 0 0
100 100 100 100 100 100 100 28 89 70 68 42 52 7 97 82 99 9 18 82 18 0 1 71 99 41 0 0 0 0 0 0 0 0 0 0 0 0 0 0 0 0 0

GFSGL_prec_cloud_030.txt.gz
Cloud_Cover
0 0 0 0 0 0 0 0 0 0 0 0 0 0 0 0 0 0 0 1 5 2 3 0 0 0 29 0 8 5 5 5 5 6 16 7 55 97 100 78 5 6 3
0 0 0 0 0 0 0 0 0 0 0 0 0 0 0 0 1 0 2 2 5 3 0 0 0 0 25 25 0 16 5 5 5 7 84 67 73 74 100 100 100 78 9
0 0 0 0 0 0 0 0 0 0 0 0 0 0 0 5 5 5 3 0 4 5 0 0 0 0 95 98 52 58 99 5 14 16 17 24 93 65 100 100 99 100 100
0 0 0 0 0 0 0 0 0 0 0 0 0 0 3 5 5 1 5 0 0 5 3 5 0 0 78 93 100 84 100 15 72 100 100 100 100 31 66 28 52 52 80
0 0 0 0 0 0 0 0 0 0 0 3 5 5 5 16 5 5 5 5 5 5 6 0 0 0 94 86 53 64 100 100 100 100 100 85 20 16 78 34 100 100 100
0 0 0 0 0 0 0 0 0 0 4 5 5 3 5 5 5 5 5 5 5 16 30 0 0 6 37 100 34 100 100 96 99 56 100 91 36 70 5 5 14 6 5
4 0 0 0 0 0 0 3 34 3 5 5 0 0 4 5 5 5 5 5 12 70 91 4 0 6 22 100 17 81 38 11 31 55 40 94 10 74 5 5 9 5 5
2 2 0 0 0 0 6 7 41 66 11 17 5 0 4 5 5 8 60 100 100 100 100 88 31 81 100 44 91 46 7 23 19 22 52 74 80 78 44 5 5 5 56
6 0 0 0 0 0 10 28 46 70 54 16 18 3 25 5 28 100 100 100 100 100 100 100 49 31 4 42 100 57 5 38 33 65 100 37 29 43 77 15 12 5 11
100 94 5 0 0 25 7 16 51 30 18 29 66 72 27 100 100 100 100 100 100 100 88 5 12 5 100 97 57 12 6 62 37 78 51 5 7 22 10 90 82 100 100
79 92 98 2 0 78 91 56 50 26 41 68 89 70 98 100 100 100 100 71 84 66 6 18 57 89 100 100 53 21 60 89 31 5 5 13 6 4 24 2 2 4 39
100 99 100 5 0 2 6 85 84 46 89 100 100 100 100 100 100 100 100 100 64 19 5 58 100 85 100 100 98 30 2 5 36 12 0 0 0 0 0 0 0 2 92
33 97 100 100 75 39 0 81 90 96 100 100 100 100 100 100 100 100 100 100 94 15 78 72 95 100 100 93 44 20 38 22 1 0 0 0 0 0 0 0 0 0 0
72 66 22 24 91 99 78 97 99 100 100 100 100 100 100 100 100 100 100 100 70 70 100 100 91 100 29 98 98 40 5 0 0 0 0 0 0 0 0 0 0 0 0
69 85 93 100 100 100 100 100 100 100 100 100 100 100 100 100 100 100 100 100 100 100 100 100 100 56 94 42 81 64 3 4 0 0 0 0 0 0 0 2 0 0 0
100 100 100 100 100 100 100 100 100 100 100 100 100 100 100 100 100 100 100 100 100 78 100 100 100 100 100 22 100 99 5 5 3 0 0 0 0 15 35 0 0 0 0
100 100 100 100 100 100 100 100 100 100 100 100 100 100 100 100 100 100 100 100 100 89 100 100 100 100 14 100 100 72 38 32 5 0 0 0 0 6 0 0 0 0 0
100 100 100 100 100 100 100 100 100 100 100 100 100 100 100 99 93 100 100 35 86 99 100 100 100 83 52 100 100 94 13 5 1 0 0 8 28 0 0 0 0 0 0
100 100 100 100 100 100 100 37 100 100 100 100 100 96 100 98 98 71 100 92 85 100 100 99 33 73 100 100 100 99 50 0 0 0 0 0 0 0 0 0 0 0 0
91 100 100 100 97 22 5 5 100 100 100 38 13 43 89 81 96 100 100 8 67 100 100 63 100 100 100 100 100 100 4 0 0 0 0 0 0 0 0 0 0 0 0
5 2 12 6 47 20 5 100 100 100 100 100 100 100 100 100 100 100 54 76 98 100 100 100 100 98 99 92 59 16 0 0 0 0 0 0 0 0 0 0 0 0 0
40 5 31 6 5 5 5 100 100 100 100 100 100 100 100 96 99 88 99 69 100 100 100 100 63 27 100 90 21 3 0 0 0 0 0 0 0 0 0 0 0 0 0
57 8 15 5 18 11 91 91 80 98 100 100 100 99 100 100 100 98 100 100 81 66 100 100 27 80 5 5 5 0 0 0 0 0 0 0 0 0 0 0 0 0 0
94 96 90 33 84 99 86 13 100 94 100 100 100 85 100 100 100 99 100 100 100 100 100 100 100 100 5 4 4 0 0 0 0 0 0 0 0 0 0 0 0 0 0
100 100 100 100 100 100 100 100 100 100 100 100 100 55 22 89 100 100 100 96 73 100 89 100 99 13 5 5 0 0 0 0 0 0 0 0 0 0 0 0 0 0 0
100 100 100 100 100 100 100 100 100 100 100 100 100 100 100 100 100 100 100 90 97 99 67 19 24 5 5 2 0 0 0 0 0 0 0 0 0 0 0 0 0 0 0

GFSGL_prec_cloud_033.txt.gz
Cloud_Cover
0 0 0 0 0 0 0 0 0 0 0 0 0 0 0 0 0 1 3 2 5 1 0 0 0 3 9 0 0 0 4 40 5 18 5 5 5 5 74 97 56 48 5
0 0 0 0 0 0 0 0 0 0 0 0 0 0 0 0 2 5 0 2 5 5 3 2 1 5 5 5 27 91 69 5 5 5 5 5 5 5 5 5 61 100 61
0 0 0 0 0 0 0 0 0 0 0 0 0 0 0 0 0 0 0 0 1 5 4 2 5 39 5 5 34 40 41 1 23 67 69 99 35 13 8 5 70 33 76
0 0 0 0 0 0 0 0 0 0 0 0 0 0 0 0 0 0 0 0 0 2 5 5 14 29 53 11 5 56 59 1 35 98 83 100 100 69 100 97 34 99 78
0 0 0 0 0 0 0 0 0 0 0 0 0 0 0 0 0 0 0 4 5 5 5 22 100 100 100 99 9 5 5 32 80 100 5 5 71 100 86 79 94 100 100
5 4 0 0 0 0 0 0 0 0 0 0 0 0 0 0 5 5 0 0 5 17 88 100 100 100 100 81 34 5 0 0 37 100 60 29 100 100 100 78 85 97 80
82 96 4 5 0 0 0 0 0 0 0 0 0 0 0 0 2 5 1 2 80 100 100 100 100 100 100 67 6 5 5 4 88 73 88 82 26 48 7 82 7 2 5
93 37 9 19 2 0 0 0 2 4 3 0 35 0 0 0 5 74 7 92 100 100 100 100 100 100 96 20 5 5 5 58 86 46 63 5 5 14 89 75 19 11 12
90 29 64 90 0 0 0 0 2 70 67 55 55 26 0 5 8 100 99 100 100 100 100 100 100 100 100 75 17 5 5 41 37 32 9 9 50 55 21 27 29 39 14
59 13 100 5 6 26 1 0 0 24 38 100 100 12 6 7 26 100 100 100 100 100 100 100 100 100 100 100 14 87 27 80 2 5 7 54 26 6 3 2 1 4 0
100 87 94 100 100 19 6 3 24 65 100 100 100 100 64 3 44 97 100 100 100 100 100 100 100 100 100 99 59 99 86 53 17 55 61 5 6 32 1 0 0 0 13
2 81 63 73 100 99 43 38 64 98 100 100 100 100 100 97 100 100 100 100 100 100 100 100 100 100 100 100 100 100 96 100 89 80 94 5 20 50 2 0 0 1 1
0 0 1 11 58 49 98 74 99 100 100 100 100 100 100 100 100 100 100 100 100 100 100 100 100 100 100 100 100 69 16 9 97 100 11 5 27 5 2 0 0 0 0
0 3 86 100 100 100 99 66 100 100 100 100 100 100 100 100 100 100 100 100 100 100 100 100 100 100 100 100 100 44 5 35 98 6 24 10 5 0 0 0 0 0 0
0 4 76 97 100 100 97 100 100 100 100 100 100 100 100 100 100 100 100 100 100 100 100 100 100 100 100 100 98 7 22 100 21 0 9 5 2 0 0 0 0 0 0
95 99 100 100 100 100 100 100 100 100 100 100 100 100 100 100 100 100 100 100 100 100 100 100 100 100 100 100 84 5 50 18 4 5 38 5 2 0 0 0 0 0 0
100 100 100 100 100 100 100 100 100 100 100 100 100 100 100 100 100 100 100 100 100 100 100 100 100 100 100 100 63 10 2 5 5 5 0 4 0 0 0 0 0 0 0
100 100 100 100 100 100 100 100 100 100 100 100 100 100 100 100 100 100 100 100 100 100 100 100 100 100 100 100 61 16 15 4 2 1 40 2 0 0 0 0 0 0 0
100 100 100 100 100 100 100 100 100 100 100 100 100 100 100 100 100 100 100 100 100 100 100 100 100 100 100 27 92 21 0 3 30 60 4 0 0 0 0 0 0 0 0
100 100 100 100 100 100 100 100 100 100 100 100 100 100 100 100 100 100 100 100 100 100 100 100 96 98 6 56 29 4 54 98 2 3 1 0 0 0 0 0 0 0 0
100 100 100 100 100 100 100 100 100 100 100 100 100 100 100 100 100 100 100 100 100 100 100 100 60 100 100 76 0 53 99 2 0 0 0 0 0 0 0 0 0 0 0
100 100 100 100 100 100 100 100 100 100 100 100 100 100 100 100 100 100 100 100 100 100 100 100 96 46 14 0 4 97 5 0 0 0 0 0 0 0 0 0 0 0 0
100 100 100 100 100 95 100 100 99 100 100 100 100 100 100 100 95 50 100 91 93 10 20 2 2 0 0 30 99 94 5 0 0 0 0 0 0 0 0 0 0 0 0
99 100 100 100 98 99 100 100 100 100 94 100 100 98 100 87 73 94 87 96 96 62 5 5 3 18 92 100 91 13 0 0 0 0 0 0 0 0 0 0 0 0 0
51 100 100 100 100 99 94 100 97 100 100 100 100 100 93 67 50 5 23 30 5 5 4 100 100 60 4 0 5 4 13 4 0 0 0 0 0 0 0 0 0 0 0
70 73 96 91 100 100 100 100 100 100 100 100 100 100 100 99 43 98 100 91 67 49 83 33 25 11 5 21 6 97 6 5 0 0 0 0 0 0 0 0 0 0 0

GFSGL_prec_cloud_036.txt.gz
Cloud_Cover
0 0 0 0 0 0 0 0 0 0 0 0 0 0 0 0 0 0 0 0 0 0 4 5 5 5 5 5 5 5 5 26 83 100 5 5 1 0 1 5 5 5 5
0 0 0 0 0 0 0 0 0 0 0 0 0 0 0 0 0 0 0 0 0 0 0 5 39 5 13 83 96 70 79 80 23 7 6 5 5 20 65 85 99 100 78
0 0 0 0 0 0 0 0 0 0 0 0 0 0 0 0 0 0 0 0 0 0 4 5 12 40 67 39 59 85 100 70 5 5 27 7 5 19 12 79 96 96 38
5 0 0 0 0 0 0 0 0 0 0 0 0 0 0 0 0 0 0 0 0 0 5 25 14 81 100 100 87 96 72 5 5 5 29 48 81 18 71 69 78 5 8
5 96 68 96 9 0 0 0 0 0 0 0 0 0 0 0 0 0 0 0 0 2 5 8 12 91 100 100 94 94 84 2 1 5 7 83 32 52 72 100 86 5 14
94 78 2 1 20 5 0 0 0 0 0 0 0 0 0 0 0 0 1 0 5 42 6 5 5 95 100 100 96 100 58 5 46 67 99 13 100 79 100 98 53 5 8
1 1 0 0 0 0 0 0 22 34 0 0 0 0 0 0 0 0 5 6 84 8 3 86 100 100 100 85 26 20 6 41 5 64 100 80 100 99 99 83 5 28 27
34 79 84 63 35 17 11 2 9 2 0 0 0 0 0 0 0 0 3 0 2 0 44 100 100 98 100 100 100 47 6 58 20 22 8 99 90 35 89 5 4 13 22
4 10 29 85 13 2 2 5 0 0 0 0 0 12 1 0 2 0 0 0 19 70 100 100 100 100 100 81 21 30 5 89 75 86 11 98 81 100 85 52 48 50 1
0 0 1 80 5 5 50 24 7 0 5 19 3 16 10 25 48 8 7 98 98 100 100 100 100 100 100 100 83 80 100 14 52 68 100 100 98 53 18 5 5 5 0
0 5 7 100 38 46 99 94 38 94 100 62 66 64 89 94 38 55 92 51 100 100 100 100 100 100 100 100 100 100 95 100 100 100 90 57 12 95 5 5 2 0 0
6 78 100 100 100 65 92 86 100 100 100 100 100 100 100 99 85 99 100 100 100 100 100 100 100 100 100 100 100 100 100 100 100 100 97 6 78 13 5 5 5 0 0
37 47 100 100 100 92 96 96 68 93 100 100 95 100 100 100 100 100 100 100 100 100 100 100 100 100 100 100 100 100 100 100 93 100 100 100 33 6 5 5 4 0 0
85 98 8 0 0 4 13 66 100 100 100 100 100 100 100 100 100 100 100 100 100 100 100 100 100 100 100 100 100 100 100 100 100 100 100 100 39 20 5 6 5 5 0
5 0 10 35 95 100 100 100 100 100 100 100 100 100 100 100 100 100 100 100 100 100 100 100 100 100 100 100 100 100 100 100 100 100 100 95 42 94 99 93 6 5 0
100 100 100 100 100 100 80 99 100 100 100 100 100 100 100 100 100 100 100 100 100 100 100 100 100 100 100 100 100 100 100 81 79 94 83 63 100 100 46 61 33 3 0
100 100 100 100 100 100 100 100 100 100 100 100 100 100 100 100 100 100 100 100 100 100 100 100 100 100 100 100 100 100 100 100 100 100 100 100 100 99 84 5 0 0 0
80 81 32 51 41 32 54 100 100 100 100 100 100 100 100 100 100 100 100 100 100 100 100 100 100 100 100 100 100 100 100 100 100 100 100 98 42 4 14 5 1 0 0
67 20 42 0 27 55 49 100 100 100 100 100 100 100 100 100 100 100 100 100 100 100 100 100 100 100 100 100 100 100 100 100 100 100 100 95 21 0 0 0 0 0 0
85 62 44 80 81 100 100 100 100 100 100 100 100 100 100 100 100 100 100 100 100 100 100 100 100 100 100 100 100 100 100 100 100 100 100 55 0 0 0 0 0 0 0
100 100 75 29 47 100 100 100 100 100 100 100 100 100 100 100 100 100 100 100 100 100 100 100 100 100 100 100 100 100 100 100 85 99 5 3 0 0 0 0 0 0 0
58 70 32 94 100 100 100 100 100 100 96 100 100 100 100 100 100 100 100 100 100 95 68 76 81 31 99 99 100 100 100 75 5 5 31 43 0 0 0 0 0 0 0
94 82 6 91 100 100 100 100 100 100 68 100 100 100 100 100 100 100 100 100 100 100 100 100 100 100 100 100 100 100 8 18 27 14 2 0 0 0 0 0 0 0 0
39 23 35 78 59 16 96 100 100 100 92 38 82 100 100 100 100 100 100 100 100 100 96 100 100 45 15 79 20 51 8 50 6 0 0 0 0 0 0 0 0 0 0
100 99 97 46 9 23 14 100 100 100 100 100 100 100 100 100 100 100 100 100 100 100 93 34 74 62 100 90 43 27 60 0 0 0 0 0 0 0 0 0 0 0 0
94 98 100 100 98 100 100 100 100 100 100 100 100 100 100 100 100 100 80 64 57 67 96 52 73 50 96 38 20 3 0 0 0 0 0 2 0 0 0 0 0 0 0